FW4624 Weather Reports


time (UTC)temp
C
wind
direction
speed
KPH
gust
KPH
rain 1hr
cm
rain 24hr
cm
rain mn
cm
humidity
%
barometer
mb
20260504192044 16 337 0.0 3.2 0.00 0.00 0.00 81 1013.2
20260504191559 16 337 0.0 4.8 0.00 0.00 0.00 81 1013.0
20260504191044 16 337 1.6 6.4 0.00 0.00 0.00 80 1013.0
20260504190547 16 338 1.6 6.4 0.00 0.00 0.00 80 1013.0
20260504190046 16 342 3.2 6.4 0.00 0.00 0.00 79 1012.9
20260504185543 16 342 0.0 4.8 0.00 0.00 0.00 79 1012.7
20260504185046 16 342 0.0 8.0 0.00 0.00 0.00 79 1012.5
20260504184543 16 342 1.6 12.9 0.00 0.00 0.00 79 1012.5
20260504184043 16 329 6.4 12.9 0.00 0.00 0.00 78 1012.4
20260504183542 16 346 3.2 4.8 0.00 0.00 0.00 79 1012.7
20260504183042 16 346 0.0 4.8 0.00 0.00 0.00 79 1012.9
20260504182541 16 346 1.6 6.4 0.00 0.00 0.00 78 1012.9
20260504182041 16 346 1.6 6.4 0.00 0.00 0.00 78 1012.8
20260504181541 16 346 0.0 4.8 0.00 0.00 0.00 78 1012.8
20260504181040 16 346 3.2 4.8 0.00 0.00 0.00 77 1012.7
20260504180540 16 346 1.6 4.8 0.00 0.00 0.00 76 1012.7
20260504180040 16 346 1.6 6.4 0.00 0.00 0.00 75 1012.8
20260504175541 16 346 1.6 6.4 0.00 0.00 0.00 74 1012.9
20260504175039 17 346 1.6 8.0 0.00 0.00 0.00 73 1012.8
20260504174539 17 347 3.2 8.0 0.00 0.00 0.00 73 1012.9
20260504174040 17 346 3.2 9.7 0.00 0.00 0.00 72 1012.9
20260504173539 17 346 3.2 9.7 0.00 0.00 0.00 72 1012.9
20260504173039 17 348 1.6 8.0 0.00 0.00 0.00 72 1013.0
20260504172541 17 5 1.6 14.5 0.00 0.00 0.00 71 1013.1
20260504172038 17 5 3.2 14.5 0.00 0.00 0.00 72 1013.2
20260504171546 17 335 1.6 9.7 0.00 0.00 0.00 72 1013.2
20260504171038 17 335 3.2 9.7 0.00 0.00 0.00 71 1013.2
20260504170538 17 334 1.6 8.0 0.00 0.00 0.00 72 1013.1
20260504151035 21 250 9.7 14.5 0.00 0.00 0.00 55 1012.9
20260504150534 21 196 6.4 14.5 0.00 0.00 0.00 54 1012.8
20260504141031 21 196 9.7 17.7 0.00 0.00 0.00 50 1013.0
20260504140532 21 188 9.7 16.1 0.00 0.00 0.00 50 1013.0
20260504130530 22 202 6.4 17.7 0.00 0.00 0.00 48 1013.1
20260504110516 21 211 3.2 11.3 0.00 0.00 0.00 51 1013.9
20260504100510 20 226 6.4 11.3 0.00 0.00 0.00 56 1014.5
20260504082005 17 206 3.2 8.0 0.00 0.00 0.00 60 1014.8
20260504081506 18 207 1.6 9.7 0.00 0.00 0.00 60 1014.9
20260504081002 18 218 3.2 9.7 0.00 0.00 0.00 60 1015.0
20260504080601 17 232 4.8 9.7 0.00 0.00 0.00 57 1014.8
20260504050539 10 219 0.0 3.2 0.00 0.00 0.00 87 1014.5
20260504045541 9 219 0.0 1.6 0.00 0.00 0.00 88 1014.4
20260504045038 9 219 0.0 1.6 0.00 0.00 0.00 88 1014.4
20260504044538 9 219 0.0 3.2 0.00 0.00 0.00 88 1014.3
20260504044038 8 219 0.0 3.2 0.00 0.00 0.00 88 1014.4
20260504043538 8 219 0.0 1.6 0.00 0.00 0.00 88 1014.4
20260504043046 8 219 0.0 1.6 0.00 0.00 0.00 88 1014.3
20260504042540 8 219 0.0 1.6 0.00 0.00 0.00 89 1014.2
20260504042036 8 219 0.0 3.2 0.00 0.00 0.00 89 1014.2
20260504041538 8 219 0.0 3.2 0.00 0.00 0.00 88 1014.2
20260504041036 8 219 0.0 1.6 0.00 0.00 0.00 88 1014.2
20260504040538 8 219 0.0 3.2 0.00 0.00 0.00 87 1014.2
20260504040035 8 219 0.0 3.2 0.00 0.00 0.00 88 1014.1
20260504035535 8 219 0.0 0.0 0.00 0.00 0.00 88 1014.2
20260504035036 8 219 0.0 0.0 0.00 0.00 0.00 87 1014.1
20260504034535 8 219 0.0 0.0 0.00 0.00 0.00 87 1014.2
20260504034032 8 219 0.0 3.2 0.00 0.00 0.00 87 1014.3
20260504033536 8 219 0.0 3.2 0.00 0.00 0.00 86 1014.2
20260504033036 9 219 0.0 0.0 0.00 0.00 0.00 87 1014.3
20260504032530 9 219 0.0 0.0 0.00 0.00 0.00 86 1014.3
20260504032029 9 219 0.0 0.0 0.00 0.00 0.00 86 1014.2
20260504031529 9 219 0.0 1.6 0.00 0.00 0.00 85 1014.4
20260504031029 9 219 0.0 1.6 0.00 0.00 0.00 86 1014.3
20260504030527 9 219 0.0 1.6 0.00 0.00 0.00 85 1014.4
20260504030027 9 219 0.0 1.6 0.00 0.00 0.00 84 1014.3
20260504025527 10 219 0.0 1.6 0.00 0.00 0.00 85 1014.3
20260504025026 10 219 0.0 0.0 0.00 0.00 0.00 85 1014.1
20260504024526 10 219 0.0 1.6 0.00 0.00 0.00 84 1014.1
20260504024024 10 219 0.0 1.6 0.00 0.00 0.00 83 1014.1
20260504023523 10 219 0.0 1.6 0.00 0.00 0.00 83 1014.2
20260504023027 11 219 0.0 1.6 0.00 0.00 0.00 83 1014.1
20260504022523 11 219 0.0 1.6 0.00 0.00 0.00 82 1014.2
20260504022022 11 219 0.0 1.6 0.00 0.00 0.00 83 1014.3
20260504021521 11 219 0.0 0.0 0.00 0.00 0.00 81 1014.3
20260504021020 11 219 0.0 0.0 0.00 0.00 0.00 81 1014.3
20260504020520 11 219 0.0 0.0 0.00 0.00 0.00 79 1014.3
20260504020019 11 219 0.0 1.6 0.00 0.00 0.00 79 1014.4
20260504015519 11 219 0.0 4.8 0.00 0.00 0.00 79 1014.2
20260504015022 11 219 1.6 4.8 0.00 0.00 0.00 80 1014.3
20260504014524 11 219 1.6 3.2 0.00 0.00 0.00 79 1014.2
20260504014016 11 219 0.0 3.2 0.00 0.00 0.00 77 1014.1
20260504013515 12 219 0.0 3.2 0.00 0.00 0.00 77 1014.1
20260504013019 12 219 0.0 3.2 0.00 0.00 0.00 77 1014.1
20260504012514 12 219 0.0 3.2 0.00 0.00 0.00 77 1014.0
20260504012013 12 219 1.6 3.2 0.00 0.00 0.00 76 1014.0
20260504011519 12 219 0.0 3.2 0.00 0.00 0.00 76 1014.0
20260504011012 12 219 1.6 4.8 0.00 0.00 0.00 75 1014.1
20260504010510 13 219 1.6 4.8 0.00 0.00 0.00 74 1014.1
20260504010011 13 219 3.2 4.8 0.00 0.00 0.00 75 1014.1
20260504005510 13 219 3.2 4.8 0.00 0.00 0.00 75 1014.1
20260504005014 13 219 1.6 3.2 0.00 0.00 0.00 76 1014.1
20260504004510 12 219 1.6 3.2 0.00 0.00 0.00 76 1014.1
20260504004010 12 219 1.6 3.2 0.00 0.00 0.00 75 1014.2
20260504003508 13 219 1.6 3.2 0.00 0.00 0.00 75 1014.2
20260504003008 13 219 0.0 3.2 0.00 0.00 0.00 73 1014.3
20260504002507 13 219 0.0 1.6 0.00 0.00 0.00 73 1014.2
20260504002009 13 219 0.0 3.2 0.00 0.00 0.00 73 1014.2
20260504001506 13 219 0.0 3.2 0.00 0.00 0.00 73 1014.1
20260504001006 13 219 1.6 4.8 0.00 0.00 0.00 72 1014.1
20260504000504 13 219 1.6 3.2 0.00 0.00 0.00 71 1014.2
20260504000004 13 219 0.0 3.2 0.00 0.00 0.00 71 1014.2
20260503235502 13 219 0.0 3.2 0.00 0.00 0.00 70 1014.2
20260503235003 14 219 1.6 4.8 0.00 0.00 0.00 70 1014.2
20260503234503 14 219 1.6 6.4 0.00 0.00 0.00 69 1014.1
20260503234001 14 217 3.2 8.0 0.00 0.00 0.00 69 1014.1
20260503233501 14 221 3.2 8.0 0.00 0.00 0.00 69 1014.2
20260503233002 14 222 3.2 6.4 0.00 0.00 0.00 70 1014.1
20260503232559 14 222 3.2 6.4 0.00 0.00 0.00 69 1014.2
20260503232059 14 222 1.6 6.4 0.00 0.00 0.00 69 1014.2
20260503231558 14 222 3.2 4.8 0.00 0.00 0.00 68 1014.2
20260503231058 14 222 1.6 6.4 0.00 0.00 0.00 67 1014.2
20260503230557 15 222 3.2 6.4 0.00 0.00 0.00 67 1014.2
20260503230100 15 222 3.2 8.0 0.00 0.00 0.00 66 1014.2
20260503225555 15 221 4.8 9.7 0.00 0.00 0.00 66 1014.2
20260503225055 15 217 4.8 9.7 0.00 0.00 0.00 66 1014.2
20260503224554 15 211 4.8 9.7 0.00 0.00 0.00 66 1014.1
20260503224054 15 210 3.2 9.7 0.00 0.00 0.00 66 1014.1
20260503223554 15 224 3.2 9.7 0.00 0.00 0.00 66 1014.1
20260503223054 15 214 3.2 9.7 0.00 0.00 0.00 66 1014.1
20260503222552 15 216 4.8 9.7 0.00 0.00 0.00 65 1014.1
20260503222054 15 214 3.2 8.0 0.00 0.00 0.00 65 1014.1
20260503221552 15 217 3.2 8.0 0.00 0.00 0.00 65 1014.1
20260503221052 15 217 4.8 8.0 0.00 0.00 0.00 64 1014.0
20260503220551 15 243 3.2 6.4 0.00 0.00 0.00 65 1014.0
20260503220050 15 271 3.2 6.4 0.00 0.00 0.00 64 1014.0
20260503215550 15 272 1.6 4.8 0.00 0.00 0.00 65 1014.0
20260503215051 15 276 1.6 6.4 0.00 0.00 0.00 65 1013.9
20260503214549 15 283 3.2 6.4 0.00 0.00 0.00 65 1014.0
20260503214049 15 284 1.6 3.2 0.00 0.00 0.00 66 1013.8
20260503213549 15 284 0.0 3.2 0.00 0.00 0.00 67 1013.9
20260503213052 16 284 0.0 4.8 0.00 0.00 0.00 68 1014.0
20260503212549 16 284 1.6 4.8 0.00 0.00 0.00 69 1014.0
20260503212048 16 284 1.6 4.8 0.00 0.00 0.00 69 1014.1
20260503211549 16 284 1.6 3.2 0.00 0.00 0.00 69 1014.0
20260503211048 16 284 1.6 3.2 0.00 0.00 0.00 70 1013.9
20260503210548 16 284 1.6 3.2 0.00 0.00 0.00 70 1014.0
20260503210048 16 284 1.6 4.8 0.00 0.00 0.00 70 1014.0
20260503205548 16 284 1.6 4.8 0.00 0.00 0.00 70 1014.0
20260503205048 16 284 0.0 3.2 0.00 0.00 0.00 69 1014.1
20260503204548 16 284 0.0 3.2 0.00 0.00 0.00 69 1014.1
20260503204047 16 284 0.0 3.2 0.00 0.00 0.00 68 1014.0
20260503203548 16 284 0.0 3.2 0.00 0.00 0.00 66 1014.1
20260503203053 16 284 1.6 4.8 0.00 0.00 0.00 65 1014.0
20260503202548 16 284 1.6 3.2 0.00 0.00 0.00 64 1014.1
20260503202048 17 284 0.0 0.0 0.00 0.00 0.00 63 1014.0
20260503201547 17 284 0.0 0.0 0.00 0.00 0.00 62 1013.8
20260503201046 17 284 0.0 0.0 0.00 0.00 0.00 61 1014.0
20260503200546 17 284 0.0 1.6 0.00 0.00 0.00 61 1014.0
20260503200046 17 284 0.0 1.6 0.00 0.00 0.00 61 1014.0
20260503195546 17 284 0.0 0.0 0.00 0.00 0.00 60 1013.9
20260503195046 17 284 0.0 1.6 0.00 0.00 0.00 60 1013.9
20260503194546 17 284 0.0 3.2 0.00 0.00 0.00 59 1013.7
20260503194047 17 284 0.0 4.8 0.00 0.00 0.00 58 1013.6
20260503193546 18 284 0.0 4.8 0.00 0.00 0.00 58 1013.6
20260503193048 18 300 1.6 4.8 0.00 0.00 0.00 57 1013.5
20260503192545 18 319 1.6 3.2 0.00 0.00 0.00 57 1013.5